Location: Heidgraben
(53.7081°N, 9.6576°E)
Time: 04:45:53
(UTC+00:00)

NOSS 3-4 (C) - Pass Details

Date: 05 July 2020
Orbit: 891 x 1321 km, 63.4° (Epoch: 12 July)

Event Time Altitude Azimuth Distance (km) Brightness Sun altitude
Rises 22:04:17 0° 312° (NW) 3,775 7.7 -11.6°
Reaches altitude 10° 22:06:48 10° 309° (NW) 2,877 6.9 -11.7°
Maximum altitude 22:13:33 64° 230° (SW) 1,251 4.0 -12.0°
Enters shadow 22:19:54 15° 153° (SSE) 2,784 5.2 -12.3°
